Regional Weather Roundup
Issued by NWS Jackson, KY

Home | Current Version | Previous Version | Graphics & Text | Print | Product List | Glossary On
Versions: 1 2 3 4 5 6 7 8 9 10 11 12 13 14 15 16 17 18 19 20 21 22 23 24 25 26 27 28 29 30 31 32 33 34 35 36 37 38 39 40 41 42 43 44 45 46 47 48 49 50
000
ASUS43 KJKL 011610
RWRJKL

EAST KENTUCKY HOURLY WEATHER ROUNDUP
NATIONAL WEATHER SERVICE JACKSON KY
1200 PM EDT TUE SEP 01 2015

NOTE: "FAIR" INDICATES FEW OR NO CLOUDS BELOW 12,000 FEET WITH
NO SIGNIFICANT WEATHER AND/OR OBSTRUCTIONS TO VISIBILITY.

* THESE REPORTS ARE NOT UNDER NWS QUALITY CONTROL AND MAY NOT
  REPORT WEATHER SUCH AS PRECIPITATION AND FOG.

KYZ079-080-083-085-087-088-110-112-115-119-120-011700
...EASTERN KENTUCKY...

CITY           SKY/WX    TMP DP  RH WIND       PRES   REMARKS
JACKSON        MOSUNNY   81  66  60 VRB3      30.20S
LONDON         SUNNY     84  64  50 E7        30.19F
SOMERSET*      SUNNY     82  63  51 E3        30.19F
MONTICELLO*    SUNNY     84  67  56 SE7       30.20F
WILLIAMSBURG*  SUNNY     81  68  65 SE3       30.19
MIDDLESBORO*   SUNNY     78  68  70 CALM      30.19F
HAZARD APT*    SUNNY     82  66  57 N3        30.19F
BLACK MTN*       N/A     66  64  94 N3          N/A
PIKEVILLE APT* SUNNY     79  68  69 N5        30.20F
BIG SANDY*     SUNNY     83  69  62 CALM      30.19S
MOREHEAD APT*  SUNNY     82  64  54 CALM      30.20S
$$

KYZ035-036-041-042-044-050-067-078-099-011700
...CENTRAL KENTUCKY...

CITY           SKY/WX    TMP DP  RH WIND       PRES   REMARKS
MT STERLING*   SUNNY     82  64  54 CALM      30.20S
FLEMING/MASON* SUNNY     81  64  57 CALM      30.18S
DANVILLE*      SUNNY     82  64  54 CALM      30.19F
RICHMOND*      SUNNY     82  64  54 E3        30.18S
LEXINGTON      SUNNY     84  64  50 NW5       30.18S
FRANKFORT      SUNNY     83  65  54 E5        30.16S
$$

KYZ091>093-OHZ055-061-077-WVZ005-015-034-035-042-011700
...SOUTHERN OHIO/WEST VIRGINIA...

CITY           SKY/WX    TMP DP  RH WIND       PRES   REMARKS
COVINGTON      MOSUNNY   84  67  56 W5        30.16S
COLUMBUS       MOSUNNY   82  69  64 CALM      30.14F
DAYTON         MOSUNNY   80  69  69 SW3       30.16F
WILMINGTON     MOSUNNY   83  66  56 SE3       30.16S
HUNTINGTON     SUNNY     83  68  60 S5        30.16F
CHARLESTON     PTSUNNY   81  67  62 CALM      30.17F
PINEVILLE*     SUNNY     81  70  68 MISG      30.25F
BECKLEY        MOSUNNY   79  64  60 N6        30.24F
BLUEFIELD      MOSUNNY   82  62  50 NE6       30.26F
$$

VAZ002-007-008-TNZ017-027-036-066-071-011700
...SOUTHWEST VIRGINIA/EAST TENNESSEE...

CITY           SKY/WX    TMP DP  RH WIND       PRES   REMARKS
WISE*          PTSUNNY   79  63  57 N6        30.26F
JONESVILLE*    SUNNY     82  64  54 E5        30.21F
ABINGDON*      SUNNY     82  61  49 CALM      30.23S
BRISTOL        MOSUNNY   80  65  59 CALM      30.19F
KNOXVILLE      MOSUNNY   82  68  62 NE5       30.16F
OAK RIDGE      SUNNY     83  66  56 CALM      30.17F
CROSSVILLE     SUNNY     81  64  56 N7        30.21F
NASHVILLE      PTSUNNY   86  65  49 E6        30.16F
$$

...KEY TO REMARKS...
VSB - VISIBILITY IN MILES
WCI - WIND CHILL INDEX
HX  - HEAT INDEX

$$



USA.gov is the U.S. government's official web portal to all federal, state and local government web resources and services.